Temperature
5 5 5 5 5 5 5 6 6 8 8 9 8 8 8 8 8 8 7 7 7 6 6 6 6 6 6 6 6 6 5 5 5 5 5 5 5 4 4 4 4 4 4 4
4 5 5 5 5 5 6 6 7 7 7 8 8 8 8 8 7 7 6 6 6 6 6 6 6 5 5 5 5 5 5 5 5 5 4 4 4 4 4 4 4 4 3 3
3 4 4 4 5 5 6 6 7 7 7 7 7 7 7 7 6 6 6 5 5 5 5 5 5 5 5 5 5 5 5 4 4 4 4 4 4 4 4 4 3 3 3 3
3 3 3 5 6 6 6 6 6 6 6 6 6 6 6 6 6 5 5 5 5 5 5 5 5 5 5 4 4 4 4 4 4 4 4 4 4 4 3 3 3 3 3 2
2 3 4 5 5 5 4 4 5 5 5 5 6 5 5 5 5 4 4 4 4 4 4 4 4 4 4 4 4 4 4 3 3 3 3 3 3 3 3 3 3 2 2 2
2 3 4 4 4 5 4 4 4 5 4 4 4 3 3 4 4 4 4 4 4 4 4 4 4 4 4 3 3 3 3 3 3 3 3 3 3 2 2 2 2 2 2 2
2 3 3 4 4 4 3 3 4 4 4 3 3 3 3 3 3 3 3 3 3 3 3 3 3 3 3 3 3 3 2 3 3 3 2 2 2 2 2 2 1 1 1 1
2 2 3 3 3 2 3 3 4 3 3 3 2 2 2 2 2 2 2 2 2 2 2 2 2 2 2 2 2 2 2 2 2 2 2 2 2 1 1 1 1 1 1 1
2 2 3 3 3 3 3 3 3 2 2 2 2 1 1 1 1 1 1 1 1 1 1 1 1 2 2 1 1 2 2 2 2 1 1 1 1 1 1 0 0 0 -0 -0
1 2 2 2 2 2 2 2 2 2 2 2 1 1 0 0 0 0 1 1 1 1 1 1 0 1 1 1 1 1 1 1 1 1 1 0 0 0 -0 -0 -0 -1 -1 -1
1 1 2 2 1 1 1 1 1 1 1 1 0 -0 -0 -0 -0 -0 -0 -0 -0 -0 -0 -0 -0 0 0 0 1 1 1 0 0 0 -0 -0 -0 -1 -1 -1 -1 -2 -2 -2
0 1 1 1 1 1 0 0 0 0 -0 -0 -0 -1 -1 -1 -1 -1 -1 -1 -1 -1 -1 -1 -1 -0 -0 -0 0 0 -0 -0 -1 -1 -1 -1 -1 -1 -1 -1 -1 -2 -2 -2
0 0 1 0 0 -0 -0 -1 -1 -1 -1 -1 -1 -1 -2 -2 -2 -2 -2 -2 -2 -1 -1 -1 -1 -1 -1 -1 -0 -1 -1 -1 -1 -1 -1 -1 -2 -2 -1 -1 -2 -2 -2 -2
-1 -0 -1 -1 -1 -1 -1 -1 -2 -2 -2 -2 -2 -2 -2 -2 -2 -2 -2 -2 -2 -2 -2 -2 -1 -1 -1 -1 -1 -1 -1 -1 -2 -2 -2 -2 -2 -2 -2 -2 -2 -2 -2 -2
-2 -2 -2 -2 -2 -2 -2 -2 -2 -3 -3 -3 -3 -3 -3 -3 -3 -3 -3 -3 -2 -2 -2 -2 -2 -2 -2 -2 -2 -2 -2 -2 -2 -2 -2 -2 -2 -2 -3 -3 -3 -3 -2 -2
-3 -3 -3 -3 -3 -3 -3 -3 -4 -4 -4 -4 -4 -4 -4 -4 -3 -3 -3 -3 -3 -2 -3 -3 -2 -3 -3 -2 -2 -2 -2 -2 -3 -2 -2 -3 -3 -3 -3 -3 -3 -3 -3 -3
-4 -4 -4 -4 -4 -4 -4 -4 -4 -4 -4 -4 -4 -4 -4 -4 -4 -4 -3 -3 -3 -3 -3 -3 -3 -3 -3 -3 -3 -3 -3 -3 -3 -3 -3 -3 -3 -3 -3 -4 -4 -4 -4 -4
-5 -5 -5 -5 -5 -5 -5 -5 -5 -5 -5 -5 -4 -4 -4 -4 -4 -4 -4 -4 -4 -3 -4 -4 -4 -3 -3 -3 -3 -3 -3 -3 -3 -4 -4 -4 -4 -4 -4 -4 -4 -4 -4 -4
-5 -5 -5 -5 -5 -5 -5 -5 -5 -5 -5 -5 -5 -5 -4 -4 -4 -4 -4 -4 -4 -4 -4 -4 -4 -4 -4 -4 -4 -4 -4 -4 -4 -4 -4 -4 -4 -4 -4 -4 -4 -5 -5 -5
-6 -6 -6 -6 -6 -6 -6 -6 -5 -5 -5 -5 -5 -5 -5 -5 -5 -5 -5 -5 -5 -5 -5 -5 -4 -4 -4 -5 -4 -4 -4 -4 -4 -4 -4 -5 -5 -5 -5 -5 -5 -5 -5 -5
-6 -6 -6 -6 -6 -6 -6 -6 -6 -6 -6 -6 -5 -5 -5 -5 -5 -5 -5 -5 -5 -5 -5 -5 -5 -5 -5 -5 -5 -5 -5 -5 -5 -5 -5 -5 -5 -5 -5 -5 -5 -6 -6 -6
-7 -7 -7 -7 -7 -7 -7 -7 -6 -6 -6 -6 -6 -6 -6 -6 -6 -6 -6 -5 -6 -6 -5 -5 -5 -5 -5 -5 -5 -5 -5 -5 -5 -5 -6 -6 -6 -6 -6 -6 -6 -6 -6 -6
-7 -7 -7 -7 -7 -7 -7 -7 -7 -7 -6 -6 -6 -6 -6 -6 -6 -6 -6 -6 -6 -6 -6 -6 -6 -6 -6 -6 -6 -5 -6 -6 -6 -6 -6 -6 -6 -6 -6 -6 -6 -6 -6 -6
-8 -8 -8 -8 -7 -8 -7 -7 -7 -7 -7 -7 -7 -7 -7 -7 -6 -6 -7 -6 -6 -6 -6 -6 -6 -6 -6 -6 -6 -6 -6 -6 -6 -6 -6 -6 -6 -6 -6 -7 -7 -6 -6 -6
-8 -8 -8 -8 -8 -8 -8 -8 -8 -7 -7 -7 -7 -7 -7 -7 -7 -7 -7 -7 -7 -7 -6 -6 -6 -6 -6 -6 -6 -6 -6 -6 -6 -7 -7 -7 -7 -7 -7 -7 -7 -7 -7 -7
-8 -8 -8 -8 -8 -8 -8 -8 -8 -8 -8 -8 -8 -8 -8 -8 -7 -7 -7 -7 -7 -7 -7 -7 -7 -7 -7 -7 -7 -7 -7 -7 -7 -7 -7 -7 -7 -7 -7 -7 -7 -7 -7 -7
-9 -9 -9 -9 -9 -9 -9 -9 -9 -9 -8 -8 -8 -8 -8 -8 -8 -8 -7 -7 -7 -7 -7 -7 -7 -7 -7 -7 -7 -7 -7 -7 -7 -7 -7 -7 -7 -7 -7 -7 -7 -7 -7 -7
Wind_Speed
5 4 4 5 8 9 9 8 6 6 5 5 1 1 1 2 3 4 3 3 3 2 1 1 2 1 1 1 1 1 1 1 1 1 1 2 2 3 3 3 4 3 4 5
5 5 5 7 9 11 12 12 11 9 8 3 1 1 1 2 2 2 2 2 2 1 1 1 1 1 1 0 0 1 1 1 1 1 1 2 2 2 3 3 3 3 4 5
4 3 3 7 9 11 10 10 10 10 7 1 0 1 0 1 1 1 1 1 1 1 1 1 1 1 1 1 1 1 1 1 1 0 1 2 2 2 3 3 3 3 4 5
2 2 6 4 0 3 5 5 4 3 1 1 1 2 1 3 3 2 2 1 1 1 1 2 1 1 1 2 2 1 1 1 1 1 1 2 2 3 3 3 3 4 5 5
2 4 5 2 1 1 3 4 2 3 1 2 3 2 2 4 4 3 3 2 1 1 1 2 2 2 2 2 2 1 1 1 1 1 2 2 2 3 3 3 3 4 4 5
2 3 4 1 1 1 1 2 1 0 1 1 2 0 1 3 4 4 4 3 3 2 2 2 2 2 2 1 2 2 2 2 2 2 2 2 3 3 3 3 3 4 4 4
3 3 2 2 3 3 2 3 1 1 1 1 0 1 0 2 3 3 3 3 3 3 3 2 2 2 2 2 2 2 2 2 3 2 2 2 2 3 3 3 3 4 4 4
2 3 3 2 2 2 1 2 3 2 2 1 2 2 2 2 3 3 3 4 4 3 3 3 3 3 2 2 2 2 2 2 3 3 3 2 3 3 3 3 3 4 4 5
3 2 1 1 1 1 2 2 3 2 1 2 2 2 3 3 3 3 4 4 4 4 4 4 4 3 3 2 3 2 2 2 2 3 3 3 2 3 3 3 3 3 4 4
1 1 0 1 3 4 4 4 3 2 2 2 2 2 3 3 3 4 4 4 4 4 4 4 4 4 3 3 3 3 3 2 2 3 3 3 3 3 2 3 3 3 4 5
2 1 2 2 3 3 4 4 4 4 3 3 3 3 2 2 3 3 3 4 3 3 3 3 4 4 4 4 3 3 3 3 3 2 2 3 3 3 3 2 2 3 3 3
2 1 1 2 2 3 3 3 3 4 4 4 3 3 3 2 3 3 3 3 3 4 4 4 4 4 4 4 4 3 3 3 3 3 3 3 3 4 5 4 6 6 6 6
2 3 2 2 3 4 3 3 4 3 3 3 3 3 3 3 3 3 3 4 3 3 3 4 4 4 4 4 3 3 2 3 3 3 3 3 3 3 4 6 6 6 7 8
4 4 3 3 3 3 3 4 4 4 4 3 3 4 3 3 4 4 4 4 3 3 4 4 4 5 5 4 4 3 3 3 3 2 2 3 3 3 3 4 5 5 7 9
6 5 2 3 3 4 4 4 4 4 4 5 4 4 4 4 4 4 3 4 4 4 4 5 5 5 6 5 4 4 3 3 3 2 2 2 2 2 3 4 4 5 6 7
5 4 3 3 3 4 4 4 3 3 3 3 3 3 3 3 3 3 4 4 4 4 4 5 5 5 5 5 5 4 3 4 4 3 2 2 3 3 3 3 4 4 5 5
3 3 3 3 3 3 3 3 2 2 2 2 2 2 2 3 3 3 4 4 4 3 4 4 4 5 5 4 4 3 3 4 5 3 2 2 3 3 3 3 4 4 4 5
2 2 2 1 1 1 3 3 2 2 2 2 2 2 2 3 2 3 3 3 4 4 5 4 4 4 4 4 3 3 3 3 3 3 3 3 3 3 3 3 4 4 4 5
4 4 3 3 2 2 2 2 2 2 2 2 2 2 2 2 2 2 2 3 4 4 4 5 7 5 4 5 5 3 2 3 3 3 3 4 4 3 4 4 4 4 5 5
5 4 4 4 3 3 2 2 2 3 3 2 3 3 3 3 2 2 3 3 2 2 3 5 5 4 4 4 5 3 3 3 3 3 3 3 3 4 4 4 5 5 5 5
5 5 4 4 3 3 3 2 2 2 3 3 3 2 2 3 2 2 2 2 3 3 4 6 4 3 3 4 5 3 3 3 3 3 3 3 4 4 4 4 4 5 5 5
4 4 4 3 3 3 3 3 2 2 3 3 3 2 2 2 3 2 2 1 3 5 4 3 2 4 5 6 3 3 3 3 3 3 3 4 4 4 4 5 5 5 5 5
3 3 3 2 2 2 3 3 3 2 2 2 2 2 2 2 2 1 2 2 2 5 4 3 4 6 7 4 3 3 3 3 3 3 3 4 4 4 4 5 5 5 5 5
3 3 3 2 2 2 2 3 3 2 2 2 2 1 1 1 2 2 1 4 6 6 3 4 7 7 7 4 3 3 3 3 3 3 4 4 4 4 4 5 5 5 5 5
2 2 2 2 2 1 1 2 2 2 2 2 2 2 2 1 1 2 2 3 5 6 3 5 7 7 5 3 3 3 3 4 4 4 4 4 4 4 5 5 5 5 5 5
2 2 2 1 1 1 1 1 1 1 2 2 2 2 2 2 2 2 2 3 3 5 4 3 4 5 3 3 3 3 3 4 5 5 4 4 5 5 5 5 6 5 5 4
2 2 2 2 2 2 2 1 1 1 1 1 2 2 2 2 2 2 3 3 3 3 3 3 3 3 3 3 3 3 4 4 4 4 4 4 4 4 5 5 5 5 5 4
Wind_Direction
274 274 251 249 235 226 225 228 229 244 256 258 221 149 99 78 79 80 78 91 94 90 75 72 79 86 102 115 118 134 142 173 221 246 250 257 253 251 258 261 262 263 271 275
275 264 248 250 238 231 236 238 242 254 268 278 57 81 88 88 76 72 62 62 70 72 68 70 95 102 76 51 81 117 142 190 210 238 258 262 268 268 265 268 268 271 275 279
258 252 278 253 230 223 227 226 226 238 245 209 357 295 160 115 102 71 42 38 73 51 19 22 58 97 85 43 52 72 89 79 40 347 292 296 296 291 277 270 269 277 276 278
224 197 230 238 251 194 215 228 223 232 244 167 172 306 56 74 72 56 29 28 40 38 16 11 37 77 86 74 62 59 56 41 23 6 335 330 328 309 292 285 280 281 280 280
202 220 250 265 321 193 205 241 226 216 212 57 58 52 77 57 47 39 25 23 31 41 35 23 39 75 82 79 74 64 43 26 15 5 343 332 320 312 306 300 299 295 293 289
213 232 234 240 352 350 131 239 307 174 173 104 64 164 243 18 28 29 21 22 23 31 38 33 40 72 82 72 60 49 31 14 13 9 350 325 314 313 316 311 298 301 302 298
226 239 252 13 16 73 146 243 2 41 85 114 238 237 265 16 28 34 21 23 28 34 33 23 36 66 79 61 45 34 25 21 20 14 355 338 338 335 333 330 323 318 318 315
205 229 244 26 72 139 246 351 27 36 27 35 45 54 50 50 44 40 34 29 34 42 32 23 33 56 56 36 26 39 37 24 17 8 358 359 356 343 342 338 333 330 330 330
202 218 5 73 75 28 22 6 3 356 11 68 74 60 46 47 43 44 37 31 37 46 38 28 28 45 47 18 20 33 39 25 12 8 6 5 4 353 348 346 337 334 332 330
251 230 75 41 37 23 14 5 11 36 46 67 94 74 57 41 40 38 38 37 44 44 37 26 27 34 35 22 23 34 35 20 10 10 7 10 9 360 351 345 341 337 333 330
247 296 26 42 22 14 9 20 32 36 43 69 93 90 72 48 42 42 36 28 39 42 32 22 25 32 24 20 28 32 23 12 6 9 12 7 6 4 351 338 328 326 322 316
249 307 309 312 3 24 30 26 36 44 45 50 67 77 67 56 46 47 36 33 36 35 29 19 23 25 16 13 23 26 16 9 6 7 7 5 360 355 358 350 346 343 336 328
336 341 359 4 31 29 31 32 35 43 58 55 46 61 69 64 49 44 37 31 32 28 22 18 20 16 8 9 18 21 13 4 4 3 1 356 353 349 339 342 347 350 349 347
7 15 17 13 7 22 35 43 48 51 50 58 60 58 61 63 49 39 28 21 25 28 24 21 21 17 9 13 19 16 13 6 1 356 353 349 345 340 336 334 335 339 342 343
0 3 359 8 32 39 42 53 58 55 52 52 54 55 53 53 43 29 20 22 31 32 26 24 23 12 9 15 17 15 11 5 1 356 352 347 343 341 340 336 334 333 336 340
347 2 23 37 40 32 38 49 55 50 48 48 50 46 43 46 42 28 26 28 35 28 19 19 14 4 5 10 12 14 12 3 357 353 351 353 350 344 339 333 331 334 335 333
7 3 11 12 11 18 28 39 49 50 48 45 37 36 36 44 42 36 27 25 31 30 20 17 7 358 1 9 13 10 7 3 1 359 359 352 345 337 333 330 331 333 332 333
1 343 339 326 330 11 25 34 41 40 36 24 35 40 38 40 32 17 11 16 25 28 20 10 359 357 6 10 11 7 3 358 356 353 351 348 337 333 335 336 337 336 334 336
18 13 9 10 22 45 49 39 31 33 32 42 54 50 39 28 20 8 11 25 25 11 357 357 359 9 7 3 3 2 357 354 353 350 346 344 347 346 342 339 336 336 335 336
15 17 21 25 33 44 49 41 41 38 34 48 61 56 39 21 22 24 26 24 8 340 329 342 354 1 356 354 358 357 351 349 348 344 344 344 341 340 340 337 335 334 334 335
7 11 17 28 31 33 41 46 52 43 32 41 58 55 32 9 10 16 27 5 347 348 346 349 360 357 354 356 358 358 353 348 343 341 339 336 334 334 334 334 332 331 331 332
1 9 14 21 36 30 28 35 41 44 41 42 43 47 41 19 16 15 9 322 322 337 345 347 354 354 353 354 356 352 348 346 343 341 339 337 334 331 331 331 330 328 328 328
7 14 16 22 35 32 28 28 30 43 50 47 40 31 24 2 353 356 335 333 332 337 346 349 349 348 349 355 350 346 347 346 343 340 337 333 329 327 326 327 326 326 326 326
11 15 14 19 40 54 36 16 17 24 29 21 12 6 6 360 353 352 325 325 337 340 348 341 344 346 348 354 347 346 345 340 335 333 331 330 327 325 323 324 325 323 324 324
8 11 18 26 33 29 19 16 21 24 28 26 15 4 358 346 315 318 325 332 340 344 343 342 344 345 349 343 342 339 335 329 327 327 327 326 325 323 321 320 321 321 321 322
2 4 3 1 356 350 356 10 10 7 19 15 5 3 4 359 345 331 333 341 341 338 339 334 335 336 337 336 335 333 331 329 330 331 327 324 322 321 319 320 319 319 317 318
6 12 16 16 18 18 15 14 10 357 352 349 341 340 347 346 345 346 344 341 338 334 330 328 329 329 330 332 331 329 326 323 321 321 320 320 318 317 318 317 319 320 323 325
Height
1429 1426 1428 1429 1430 1430 1432 1430 1430 1422 1420 1418 1418 1419 1420 1421 1422 1422 1423 1424 1425 1426 1427 1428 1428 1429 1430 1431 1431 1432 1433 1433 1433 1434 1434 1433 1433 1433 1432 1432 1431 1430 1429 1428
1429 1425 1425 1426 1425 1425 1425 1424 1422 1420 1420 1417 1417 1418 1420 1421 1421 1422 1423 1423 1424 1425 1426 1426 1427 1427 1428 1428 1429 1430 1430 1430 1430 1430 1430 1430 1429 1429 1428 1427 1427 1426 1425 1424
1430 1425 1424 1427 1419 1418 1418 1416 1417 1418 1417 1416 1418 1418 1419 1420 1421 1422 1422 1422 1422 1423 1424 1425 1425 1425 1426 1426 1427 1427 1427 1427 1427 1427 1427 1426 1426 1425 1424 1423 1422 1421 1420 1419
1430 1429 1433 1417 1410 1411 1413 1413 1414 1414 1415 1416 1417 1418 1419 1419 1420 1421 1421 1421 1421 1422 1422 1423 1423 1424 1424 1424 1425 1425 1425 1425 1425 1424 1424 1423 1423 1422 1421 1420 1418 1417 1416 1415
1429 1426 1418 1414 1412 1412 1414 1414 1413 1414 1415 1416 1416 1416 1418 1419 1419 1420 1420 1420 1420 1420 1420 1421 1421 1422 1422 1422 1422 1422 1422 1422 1422 1422 1421 1420 1419 1419 1417 1416 1415 1414 1412 1411
1426 1424 1418 1415 1411 1409 1413 1416 1413 1412 1414 1415 1416 1420 1419 1418 1418 1418 1418 1418 1418 1418 1418 1419 1419 1419 1420 1420 1420 1420 1420 1420 1420 1420 1419 1418 1417 1416 1414 1413 1411 1410 1409 1408
1424 1422 1416 1414 1411 1411 1419 1418 1412 1412 1413 1414 1415 1417 1417 1416 1416 1416 1417 1417 1416 1416 1416 1417 1417 1417 1418 1418 1418 1418 1418 1418 1418 1417 1416 1416 1415 1413 1412 1410 1409 1407 1405 1404
1422 1421 1420 1415 1414 1416 1416 1413 1412 1412 1412 1413 1414 1414 1414 1415 1415 1415 1415 1415 1414 1414 1414 1415 1415 1415 1415 1416 1416 1417 1416 1416 1415 1415 1414 1413 1412 1411 1410 1408 1406 1404 1402 1400
1418 1419 1415 1413 1414 1414 1413 1412 1411 1411 1411 1412 1412 1413 1413 1414 1414 1414 1414 1413 1413 1413 1413 1413 1414 1414 1414 1414 1414 1415 1414 1414 1413 1413 1412 1411 1410 1408 1407 1406 1404 1401 1399 1397
1416 1414 1414 1414 1413 1413 1412 1412 1411 1410 1410 1410 1410 1411 1412 1413 1413 1413 1413 1413 1412 1412 1412 1412 1412 1412 1412 1413 1413 1412 1412 1412 1411 1410 1410 1409 1408 1406 1405 1403 1401 1399 1397 1395
1415 1414 1413 1413 1413 1413 1412 1411 1411 1410 1410 1410 1410 1411 1412 1412 1412 1412 1412 1412 1412 1411 1411 1411 1411 1411 1411 1411 1411 1410 1410 1410 1409 1409 1408 1407 1406 1405 1403 1401 1400 1398 1396 1394
1415 1414 1414 1413 1413 1412 1411 1411 1411 1410 1410 1411 1411 1411 1411 1412 1412 1412 1412 1412 1411 1410 1410 1410 1410 1410 1410 1410 1409 1408 1408 1407 1407 1407 1406 1405 1403 1402 1401 1400 1398 1396 1394 1392
1413 1412 1412 1412 1412 1412 1411 1411 1411 1410 1410 1410 1411 1411 1411 1411 1412 1411 1411 1411 1410 1410 1410 1409 1409 1409 1408 1408 1407 1407 1406 1406 1405 1405 1404 1403 1402 1400 1398 1397 1397 1395 1393 1391
1412 1412 1412 1411 1411 1411 1411 1410 1410 1410 1411 1411 1411 1411 1411 1411 1411 1411 1410 1410 1410 1410 1409 1409 1408 1407 1407 1406 1406 1405 1405 1404 1404 1403 1402 1401 1400 1399 1397 1395 1393 1391 1390 1389
1412 1412 1412 1411 1410 1410 1410 1410 1409 1410 1410 1410 1411 1411 1411 1410 1410 1410 1410 1410 1409 1409 1408 1408 1407 1406 1406 1405 1404 1403 1403 1402 1402 1401 1400 1400 1399 1397 1396 1394 1392 1390 1388 1387
1412 1411 1411 1410 1410 1410 1409 1409 1409 1409 1409 1409 1410 1410 1410 1410 1410 1410 1410 1410 1409 1408 1408 1407 1406 1406 1405 1404 1403 1402 1401 1401 1400 1400 1399 1398 1397 1396 1394 1393 1391 1389 1387 1385
1411 1410 1410 1410 1409 1409 1409 1409 1409 1409 1409 1409 1409 1409 1410 1410 1410 1410 1410 1409 1409 1408 1408 1407 1406 1405 1404 1403 1402 1401 1400 1400 1399 1399 1398 1397 1396 1394 1393 1391 1389 1387 1386 1385
1411 1411 1410 1409 1409 1408 1408 1408 1408 1408 1408 1408 1409 1409 1409 1409 1409 1409 1409 1409 1408 1408 1407 1407 1406 1404 1403 1403 1402 1401 1400 1399 1398 1398 1397 1396 1395 1393 1392 1390 1388 1386 1384 1383
1410 1410 1409 1409 1408 1408 1408 1408 1408 1408 1408 1408 1408 1408 1408 1409 1409 1409 1408 1408 1407 1406 1406 1406 1405 1404 1403 1402 1401 1400 1399 1399 1398 1397 1396 1395 1393 1392 1390 1388 1387 1385 1383 1382
1409 1409 1408 1408 1408 1408 1407 1407 1407 1407 1407 1407 1407 1408 1408 1408 1408 1408 1408 1407 1407 1406 1406 1405 1404 1404 1403 1402 1401 1400 1399 1398 1397 1396 1395 1393 1392 1390 1389 1387 1385 1384 1382 1380
1409 1408 1407 1407 1407 1407 1407 1407 1406 1406 1407 1407 1407 1407 1407 1408 1408 1407 1407 1406 1406 1406 1405 1405 1404 1403 1402 1401 1400 1399 1398 1397 1396 1395 1394 1392 1391 1389 1387 1386 1384 1382 1381 1379
1408 1407 1407 1407 1406 1406 1406 1406 1406 1406 1406 1407 1407 1407 1407 1407 1407 1406 1406 1406 1406 1405 1405 1404 1403 1402 1401 1400 1399 1398 1397 1396 1395 1394 1392 1391 1389 1387 1386 1384 1382 1381 1379 1378
1408 1408 1407 1407 1406 1406 1406 1406 1406 1406 1406 1407 1407 1407 1406 1406 1406 1406 1405 1405 1405 1404 1403 1403 1402 1401 1400 1399 1398 1397 1396 1395 1393 1392 1391 1389 1388 1386 1384 1382 1381 1379 1378 1377
1408 1408 1407 1407 1406 1406 1406 1406 1406 1406 1406 1406 1406 1406 1406 1405 1405 1405 1405 1404 1404 1403 1402 1401 1401 1400 1399 1398 1397 1396 1394 1393 1392 1390 1389 1387 1386 1384 1383 1381 1379 1378 1376 1375
1408 1408 1407 1406 1406 1406 1406 1406 1406 1406 1406 1406 1406 1406 1405 1405 1404 1404 1403 1403 1402 1401 1400 1400 1399 1398 1397 1396 1395 1394 1392 1391 1390 1389 1387 1386 1384 1383 1381 1379 1378 1376 1375 1373
1408 1407 1407 1407 1406 1406 1406 1405 1405 1405 1405 1405 1405 1405 1404 1404 1403 1403 1402 1401 1400 1400 1399 1398 1397 1396 1395 1394 1393 1392 1391 1389 1388 1387 1386 1384 1383 1381 1379 1378 1376 1375 1373 1372
1408 1407 1407 1406 1406 1406 1406 1405 1405 1405 1404 1404 1403 1403 1403 1403 1402 1401 1400 1399 1399 1398 1397 1396 1395 1394 1393 1392 1391 1390 1389 1388 1386 1385 1384 1382 1381 1379 1378 1376 1375 1373 1372 1371